N835PA KTWF-K1U7

Flight info

Callsign N835PA
Flight time 1h 1m
Altitude 13500
Route MURTH
Aircraft PA24/L-SDGRY/S

Departure

Time 2026-05-06 19:21
Airport Joslin Field Magic Valley Regional Airport (KTWF)

Arrival

Time 2026-05-06 20:22
Airport Bear Lake County Airport (K1U7)
Time Latitude Longitude Altitude Speed Heading
2026-05-06 19:08 42.48308 -114.48636 4137 ft 0 kts 218°
2026-05-06 19:17 42.48298 -114.48654 4141 ft 6 kts 274°
2026-05-06 19:17 42.48338 -114.48724 4136 ft 11 kts 315°
2026-05-06 19:17 42.48386 -114.48776 4138 ft 6 kts
2026-05-06 19:18 42.48420 -114.48786 4134 ft 7 kts 316°
2026-05-06 19:18 42.48476 -114.48862 4133 ft 15 kts 314°
2026-05-06 19:18 42.48562 -114.48966 4137 ft 14 kts 322°
2026-05-06 19:18 42.48614 -114.49032 4129 ft 8 kts 315°
2026-05-06 19:19 42.48625 -114.49100 4127 ft 8 kts 278°
2026-05-06 19:19 42.48665 -114.49163 4126 ft 10 kts 315°
2026-05-06 19:19 42.48713 -114.49223 4127 ft 9 kts 322°
2026-05-06 19:19 42.48756 -114.49285 4123 ft 7 kts 287°
2026-05-06 19:20 42.48728 -114.49338 4118 ft 11 kts 196°
2026-05-06 19:20 42.48662 -114.49280 4124 ft 30 kts 136°
2026-05-06 19:20 42.48347 -114.48880 4146 ft 85 kts 136°
2026-05-06 19:20 42.47907 -114.48285 4327 ft 95 kts 134°
2026-05-06 19:21 42.47477 -114.47560 4548 ft 100 kts 115°
2026-05-06 19:21 42.47458 -114.46624 4803 ft 100 kts 72°
2026-05-06 19:21 42.47611 -114.45775 5118 ft 92 kts 77°
2026-05-06 19:21 42.47861 -114.44956 5344 ft 92 kts 71°
2026-05-06 19:22 42.47907 -114.44115 5601 ft 91 kts 94°
2026-05-06 19:22 42.47808 -114.43261 5832 ft 93 kts 96°
2026-05-06 19:22 42.47716 -114.42376 6064 ft 97 kts 95°
2026-05-06 19:22 42.47604 -114.41464 6340 ft 102 kts 96°
2026-05-06 19:23 42.47485 -114.40505 6567 ft 104 kts 96°
2026-05-06 19:23 42.47393 -114.39549 6764 ft 101 kts 90°
2026-05-06 19:23 42.47342 -114.38597 7021 ft 102 kts 89°
2026-05-06 19:23 42.47294 -114.37608 7296 ft 104 kts 86°
2026-05-06 19:24 42.47247 -114.36620 7436 ft 108 kts 87°
2026-05-06 19:24 42.47190 -114.35612 7682 ft 107 kts 89°
2026-05-06 19:24 42.47130 -114.34616 7939 ft 104 kts 86°
2026-05-06 19:24 42.47079 -114.33632 8214 ft 103 kts 87°
2026-05-06 19:25 42.47014 -114.32666 8445 ft 102 kts 89°
2026-05-06 19:25 42.46951 -114.31711 8709 ft 103 kts 88°
2026-05-06 19:25 42.46891 -114.30732 8974 ft 104 kts 86°
2026-05-06 19:25 42.46837 -114.29754 9229 ft 106 kts 86°
2026-05-06 19:26 42.46767 -114.28767 9453 ft 104 kts 85°
2026-05-06 19:26 42.46714 -114.27800 9648 ft 103 kts 86°
2026-05-06 19:26 42.46653 -114.26829 9842 ft 103 kts 86°
2026-05-06 19:26 42.46601 -114.25862 10074 ft 104 kts 86°
2026-05-06 19:27 42.46539 -114.24893 10236 ft 103 kts 87°
2026-05-06 19:27 42.46477 -114.23925 10396 ft 104 kts 85°
2026-05-06 19:27 42.46414 -114.22950 10596 ft 104 kts 85°
2026-05-06 19:27 42.46353 -114.21973 10751 ft 105 kts 84°
2026-05-06 19:28 42.46300 -114.20994 10951 ft 104 kts 85°
2026-05-06 19:28 42.46240 -114.20009 11109 ft 106 kts 86°
2026-05-06 19:28 42.46182 -114.19021 11321 ft 105 kts 84°
2026-05-06 19:28 42.46116 -114.18036 11507 ft 105 kts 86°
2026-05-06 19:29 42.46045 -114.17049 11690 ft 105 kts 84°
2026-05-06 19:29 42.45989 -114.16060 11853 ft 106 kts 84°
2026-05-06 19:29 42.45933 -114.15066 12017 ft 106 kts 84°
2026-05-06 19:29 42.45872 -114.14070 12168 ft 107 kts 84°
2026-05-06 19:30 42.45808 -114.13066 12349 ft 107 kts 84°
2026-05-06 19:30 42.45744 -114.12057 12525 ft 107 kts 84°
2026-05-06 19:30 42.45682 -114.11060 12680 ft 106 kts 84°
2026-05-06 19:30 42.45618 -114.10076 12815 ft 107 kts 84°
2026-05-06 19:31 42.45556 -114.09077 12975 ft 107 kts 83°
2026-05-06 19:31 42.45493 -114.08075 13124 ft 107 kts 83°
2026-05-06 19:31 42.45368 -114.06064 13410 ft 107 kts 83°
2026-05-06 19:32 42.45303 -114.05042 13505 ft 113 kts 83°
2026-05-06 19:32 42.45237 -114.03931 13527 ft 124 kts 85°
2026-05-06 19:32 42.45153 -114.02719 13519 ft 134 kts 85°
2026-05-06 19:32 42.45071 -114.01421 13514 ft 141 kts 86°
2026-05-06 19:33 42.44987 -114.00074 13515 ft 146 kts 86°
2026-05-06 19:33 42.44901 -113.98691 13512 ft 149 kts 86°
2026-05-06 19:33 42.44841 -113.97735 13517 ft 151 kts 86°
2026-05-06 19:33 42.44717 -113.95868 13519 ft 150 kts 86°
2026-05-06 19:34 42.44657 -113.94932 13520 ft 151 kts 87°
2026-05-06 19:34 42.44575 -113.93503 13524 ft 153 kts 86°
2026-05-06 19:34 42.44483 -113.92061 13523 ft 155 kts 87°
2026-05-06 19:34 42.44386 -113.90605 13525 ft 155 kts 87°
2026-05-06 19:35 42.44291 -113.89146 13528 ft 156 kts 87°
2026-05-06 19:35 42.44199 -113.87723 13518 ft 157 kts 88°
2026-05-06 19:35 42.44106 -113.86219 13523 ft 156 kts 87°
2026-05-06 19:35 42.44018 -113.84757 13529 ft 156 kts 86°
2026-05-06 19:36 42.43917 -113.83297 13531 ft 156 kts 88°
2026-05-06 19:36 42.43817 -113.81875 13529 ft 156 kts 87°
2026-05-06 19:36 42.43726 -113.80410 13532 ft 157 kts 87°
2026-05-06 19:36 42.43633 -113.78942 13532 ft 156 kts 87°
2026-05-06 19:37 42.43534 -113.77478 13530 ft 156 kts 87°
2026-05-06 19:37 42.43442 -113.76009 13532 ft 157 kts 87°
2026-05-06 19:37 42.43344 -113.74543 13545 ft 157 kts 88°
2026-05-06 19:37 42.43240 -113.73070 13534 ft 157 kts 87°
2026-05-06 19:38 42.43140 -113.71598 13530 ft 157 kts 88°
2026-05-06 19:38 42.43044 -113.70126 13528 ft 157 kts 86°
2026-05-06 19:38 42.42953 -113.68661 13526 ft 156 kts 88°
2026-05-06 19:38 42.42857 -113.67204 13525 ft 155 kts 87°
2026-05-06 19:39 42.42759 -113.65747 13524 ft 156 kts 88°
2026-05-06 19:39 42.42661 -113.64279 13523 ft 156 kts 87°
2026-05-06 19:39 42.42570 -113.62811 13521 ft 157 kts 87°
2026-05-06 19:39 42.42466 -113.61343 13519 ft 157 kts 87°
2026-05-06 19:40 42.42363 -113.59874 13516 ft 156 kts 88°
2026-05-06 19:40 42.42268 -113.58413 13514 ft 156 kts 87°
2026-05-06 19:40 42.42174 -113.56956 13512 ft 156 kts 87°
2026-05-06 19:40 42.42072 -113.55494 13510 ft 156 kts 88°
2026-05-06 19:41 42.41971 -113.54034 13508 ft 156 kts 87°
2026-05-06 19:41 42.41874 -113.52576 13504 ft 156 kts 87°
2026-05-06 19:41 42.41780 -113.51115 13502 ft 156 kts 87°
2026-05-06 19:41 42.41680 -113.49657 13500 ft 156 kts 87°
2026-05-06 19:42 42.41577 -113.48199 13500 ft 156 kts 88°
2026-05-06 19:42 42.41474 -113.46735 13498 ft 156 kts 87°
2026-05-06 19:42 42.41381 -113.45279 13495 ft 155 kts 87°
2026-05-06 19:42 42.41283 -113.43820 13493 ft 156 kts 87°
2026-05-06 19:43 42.41180 -113.42357 13485 ft 157 kts 88°
2026-05-06 19:43 42.41071 -113.40887 13470 ft 157 kts 86°
2026-05-06 19:43 42.40975 -113.39413 13473 ft 157 kts 86°
2026-05-06 19:43 42.40871 -113.37946 13469 ft 157 kts 86°
2026-05-06 19:44 42.40782 -113.36477 13471 ft 157 kts 86°
2026-05-06 19:44 42.40675 -113.35013 13470 ft 157 kts 87°
2026-05-06 19:44 42.40569 -113.33545 13467 ft 157 kts 86°
2026-05-06 19:44 42.40469 -113.32096 13470 ft 157 kts 86°
2026-05-06 19:45 42.40367 -113.30610 13468 ft 157 kts 86°
2026-05-06 19:45 42.40265 -113.29142 13470 ft 157 kts 86°
2026-05-06 19:45 42.40163 -113.27698 13473 ft 157 kts 87°
2026-05-06 19:45 42.40062 -113.26229 13473 ft 157 kts 86°
2026-05-06 19:46 42.39959 -113.24760 13470 ft 157 kts 86°
2026-05-06 19:46 42.39855 -113.23292 13473 ft 157 kts 86°
2026-05-06 19:46 42.39750 -113.21822 13473 ft 157 kts 86°
2026-05-06 19:46 42.39647 -113.20357 13465 ft 156 kts 86°
2026-05-06 19:47 42.39546 -113.18893 13472 ft 156 kts 86°
2026-05-06 19:47 42.39442 -113.17434 13475 ft 156 kts 86°
2026-05-06 19:47 42.39339 -113.15974 13475 ft 156 kts 86°
2026-05-06 19:47 42.39236 -113.14518 13475 ft 156 kts 86°
2026-05-06 19:48 42.39130 -113.13060 13472 ft 156 kts 86°
2026-05-06 19:48 42.39026 -113.11603 13467 ft 155 kts 86°
2026-05-06 19:48 42.38930 -113.10155 13486 ft 154 kts 86°
2026-05-06 19:48 42.38815 -113.08710 13477 ft 155 kts 86°
2026-05-06 19:49 42.38715 -113.07259 13476 ft 155 kts 85°
2026-05-06 19:49 42.38616 -113.05809 13473 ft 155 kts 86°
2026-05-06 19:49 42.38509 -113.04355 13470 ft 155 kts 86°
2026-05-06 19:49 42.38403 -113.02900 13473 ft 156 kts 86°
2026-05-06 19:50 42.38298 -113.01440 13470 ft 155 kts 86°
2026-05-06 19:50 42.38193 -113.00000 13469 ft 154 kts 86°
2026-05-06 19:50 42.38088 -112.98550 13472 ft 155 kts 85°
2026-05-06 19:50 42.37983 -112.97097 13476 ft 155 kts 85°
2026-05-06 19:51 42.37882 -112.95664 13475 ft 155 kts 86°
2026-05-06 19:51 42.37775 -112.94215 13469 ft 155 kts 86°
2026-05-06 19:51 42.37667 -112.92763 13476 ft 156 kts 86°
2026-05-06 19:51 42.37559 -112.91305 13473 ft 156 kts 86°
2026-05-06 19:52 42.37455 -112.89839 13476 ft 157 kts 85°
2026-05-06 19:52 42.37348 -112.88369 13476 ft 157 kts 86°
2026-05-06 19:52 42.37236 -112.86899 13474 ft 157 kts 85°
2026-05-06 19:52 42.37133 -112.85434 13473 ft 156 kts 86°
2026-05-06 19:53 42.37025 -112.83972 13466 ft 156 kts 86°
2026-05-06 19:53 42.36917 -112.82511 13470 ft 156 kts 86°
2026-05-06 19:53 42.36810 -112.81056 13466 ft 155 kts 86°
2026-05-06 19:53 42.36701 -112.79607 13471 ft 155 kts 86°
2026-05-06 19:54 42.36592 -112.78150 13489 ft 155 kts 86°
2026-05-06 19:54 42.36485 -112.76694 13473 ft 155 kts 84°
2026-05-06 19:54 42.36387 -112.75248 13468 ft 154 kts 86°
2026-05-06 19:54 42.36265 -112.73797 13468 ft 155 kts 86°
2026-05-06 19:55 42.36157 -112.72360 13465 ft 153 kts 86°
2026-05-06 19:55 42.36047 -112.70955 13466 ft 153 kts 86°
2026-05-06 19:55 42.35941 -112.69529 13473 ft 152 kts 86°
2026-05-06 19:55 42.35839 -112.68101 13474 ft 153 kts 85°
2026-05-06 19:56 42.35733 -112.66669 13474 ft 152 kts 86°
2026-05-06 19:56 42.35630 -112.65225 13473 ft 155 kts 85°
2026-05-06 19:56 42.35522 -112.63773 13471 ft 156 kts 85°
2026-05-06 19:56 42.35403 -112.62311 13470 ft 157 kts 86°
2026-05-06 19:57 42.35293 -112.60848 13472 ft 156 kts 85°
2026-05-06 19:57 42.35185 -112.59395 13472 ft 155 kts 86°
2026-05-06 19:57 42.35075 -112.57964 13475 ft 155 kts 86°
2026-05-06 19:57 42.34963 -112.56519 13475 ft 155 kts 86°
2026-05-06 19:58 42.34853 -112.55073 13472 ft 154 kts 86°
2026-05-06 19:58 42.34743 -112.53627 13473 ft 155 kts 86°
2026-05-06 19:58 42.34635 -112.52184 13468 ft 155 kts 86°
2026-05-06 19:58 42.34517 -112.50731 13471 ft 156 kts 85°
2026-05-06 19:59 42.34410 -112.49269 13472 ft 156 kts 85°
2026-05-06 19:59 42.34298 -112.47805 13471 ft 156 kts 86°
2026-05-06 19:59 42.34188 -112.46346 13470 ft 156 kts 86°
2026-05-06 19:59 42.34069 -112.44887 13482 ft 157 kts 85°
2026-05-06 20:00 42.33961 -112.43427 13476 ft 157 kts 85°
2026-05-06 20:00 42.33853 -112.42009 13470 ft 155 kts 85°
2026-05-06 20:00 42.33737 -112.40595 13469 ft 154 kts 85°
2026-05-06 20:00 42.33624 -112.39160 13477 ft 153 kts 85°
2026-05-06 20:01 42.33514 -112.37727 13477 ft 153 kts 85°
2026-05-06 20:01 42.33405 -112.36295 13475 ft 154 kts 85°
2026-05-06 20:01 42.33290 -112.34847 13475 ft 155 kts 85°
2026-05-06 20:01 42.33179 -112.33404 13475 ft 154 kts 83°
2026-05-06 20:02 42.33075 -112.31958 13475 ft 156 kts 84°
2026-05-06 20:02 42.32948 -112.30506 13477 ft 156 kts 84°
2026-05-06 20:02 42.32844 -112.29040 13475 ft 157 kts 85°
2026-05-06 20:02 42.32717 -112.27587 13474 ft 156 kts 85°
2026-05-06 20:03 42.32593 -112.26133 13473 ft 156 kts 86°
2026-05-06 20:03 42.32488 -112.24675 13473 ft 156 kts 84°
2026-05-06 20:03 42.32383 -112.23220 13473 ft 156 kts 85°
2026-05-06 20:03 42.32267 -112.21769 13473 ft 155 kts 85°
2026-05-06 20:04 42.32149 -112.20323 13472 ft 155 kts 85°
2026-05-06 20:04 42.32023 -112.18876 13480 ft 155 kts 86°
2026-05-06 20:04 42.32030 -112.17426 13482 ft 154 kts 64°
2026-05-06 20:04 42.32435 -112.16129 13478 ft 147 kts 56°
2026-05-06 20:05 42.32849 -112.14878 13476 ft 145 kts 57°
2026-05-06 20:05 42.33202 -112.13615 13470 ft 144 kts 68°
2026-05-06 20:05 42.33157 -112.12235 13478 ft 152 kts 86°
2026-05-06 20:05 42.33005 -112.10805 13476 ft 155 kts 86°
2026-05-06 20:06 42.32858 -112.09361 13481 ft 155 kts 86°
2026-05-06 20:06 42.32709 -112.07912 13491 ft 156 kts 87°
2026-05-06 20:06 42.32564 -112.06484 13494 ft 155 kts 86°
2026-05-06 20:06 42.32423 -112.05025 13505 ft 155 kts 85°
2026-05-06 20:07 42.32274 -112.03602 13503 ft 155 kts 87°
2026-05-06 20:07 42.32123 -112.02157 13505 ft 155 kts 86°
2026-05-06 20:07 42.31974 -112.00713 13504 ft 155 kts 86°
2026-05-06 20:07 42.31825 -111.99272 13504 ft 155 kts 86°
2026-05-06 20:08 42.31682 -111.97827 13504 ft 155 kts 86°
2026-05-06 20:08 42.31530 -111.96379 13504 ft 156 kts 86°
2026-05-06 20:08 42.31386 -111.94928 13504 ft 155 kts 86°
2026-05-06 20:08 42.31234 -111.93485 13504 ft 155 kts 87°
2026-05-06 20:09 42.31087 -111.92089 13502 ft 154 kts 86°
2026-05-06 20:09 42.30969 -111.90881 13498 ft 154 kts 85°
2026-05-06 20:09 42.30805 -111.89393 13507 ft 153 kts 85°
2026-05-06 20:09 42.30664 -111.87974 13510 ft 153 kts 85°
2026-05-06 20:10 42.30526 -111.86552 13509 ft 152 kts 87°
2026-05-06 20:10 42.30376 -111.85128 13512 ft 155 kts 87°
2026-05-06 20:10 42.30219 -111.83692 13513 ft 155 kts 86°
2026-05-06 20:10 42.30075 -111.82264 13512 ft 154 kts 86°
2026-05-06 20:11 42.29928 -111.80831 13510 ft 154 kts 86°
2026-05-06 20:11 42.29776 -111.79393 13526 ft 155 kts 86°
2026-05-06 20:11 42.29616 -111.77950 13479 ft 155 kts 85°
2026-05-06 20:11 42.29474 -111.76506 13264 ft 157 kts 85°
2026-05-06 20:12 42.29321 -111.75027 13057 ft 160 kts 86°
2026-05-06 20:12 42.29171 -111.73557 12855 ft 158 kts 87°
2026-05-06 20:12 42.29018 -111.72081 12650 ft 159 kts 87°
2026-05-06 20:12 42.28869 -111.70600 12472 ft 159 kts 87°
2026-05-06 20:13 42.28709 -111.69121 12287 ft 159 kts 89°
2026-05-06 20:13 42.28542 -111.67643 12114 ft 159 kts 88°
2026-05-06 20:13 42.28397 -111.66165 11926 ft 159 kts 88°
2026-05-06 20:13 42.28246 -111.64684 11708 ft 158 kts 90°
2026-05-06 20:14 42.28084 -111.63211 11400 ft 160 kts 92°
2026-05-06 20:14 42.27922 -111.61696 11100 ft 163 kts 90°
2026-05-06 20:14 42.27762 -111.60209 10910 ft 159 kts 91°
2026-05-06 20:14 42.27600 -111.58714 10654 ft 161 kts 89°
2026-05-06 20:15 42.27450 -111.57279 10588 ft 149 kts 91°
2026-05-06 20:15 42.27303 -111.55880 10352 ft 154 kts 91°
2026-05-06 20:15 42.27154 -111.54445 10133 ft 151 kts 91°
2026-05-06 20:15 42.27020 -111.53036 9910 ft 152 kts 93°
2026-05-06 20:16 42.26857 -111.51622 9712 ft 149 kts 92°
2026-05-06 20:16 42.26707 -111.50251 9511 ft 150 kts 92°
2026-05-06 20:16 42.26566 -111.48904 9263 ft 152 kts 94°
2026-05-06 20:16 42.26416 -111.47514 9076 ft 149 kts 93°
2026-05-06 20:17 42.26263 -111.46118 8878 ft 151 kts 93°
2026-05-06 20:17 42.26341 -111.44736 8631 ft 150 kts 61°
2026-05-06 20:17 42.26946 -111.43649 8524 ft 133 kts 41°
2026-05-06 20:17 42.27198 -111.42453 8085 ft 153 kts 90°
2026-05-06 20:18 42.26803 -111.41128 8010 ft 145 kts 118°
2026-05-06 20:18 42.26261 -111.39962 7886 ft 146 kts 120°
2026-05-06 20:18 42.25733 -111.38787 7743 ft 149 kts 115°
2026-05-06 20:18 42.25268 -111.37611 7612 ft 139 kts 113°
2026-05-06 20:19 42.24851 -111.36443 7417 ft 135 kts 111°
2026-05-06 20:19 42.24538 -111.35268 7198 ft 135 kts 93°
2026-05-06 20:19 42.24870 -111.34111 6919 ft 135 kts 40°
2026-05-06 20:19 42.25694 -111.33748 6860 ft 124 kts 353°
2026-05-06 20:20 42.26420 -111.34296 6717 ft 120 kts 312°
2026-05-06 20:20 42.26938 -111.35084 6691 ft 106 kts 311°
2026-05-06 20:20 42.27331 -111.35829 6684 ft 92 kts 283°
2026-05-06 20:20 42.27158 -111.36541 6631 ft 83 kts 212°
2026-05-06 20:21 42.26561 -111.36565 6450 ft 92 kts 167°
2026-05-06 20:21 42.25987 -111.36179 6323 ft 95 kts 136°
2026-05-06 20:21 42.25675 -111.35376 6156 ft 100 kts 112°
2026-05-06 20:21 42.25402 -111.34565 5990 ft 89 kts 113°
2026-05-06 20:22 42.25246 -111.34103 5974 ft 72 kts 114°
2026-05-06 20:22 42.25155 -111.33808 5971 ft 7 kts 38°
2026-05-06 20:22 42.25191 -111.33783 5973 ft 8 kts 26°
2026-05-06 20:22 42.25231 -111.33752 5973 ft 7 kts 31°
2026-05-06 20:23 42.25254 -111.33767 5973 ft 0 kts 297°